SAUDISAT 2

Last updated on July 6, 2021, 3:44 p.m. UTC

1 28371U 04025F   21187.11792908  .00000043  00000-0  20860-4 0  9995
2 28371  98.3284 139.2592 0026800  90.1158 270.3091 14.54434561902941
UTC
Height (km)
Latitude
Longitude
Inclination
Orbital Period
UTC large
Height (km)
Speed (km/s)
/
Latitude / Longitude
Inclination (degrees)
Orbital Period (minutes)
Azimuth
Elevation
Range (km)
Doppler Factor
iOS Compass Heading
iOS Angle